[[{"header":{"parameterUnit":"m.s-1","parameterCategory":1,"la1":30.2991,"la2":30.254,"lo1":-89.0895,"lo2":-89.0444,"dy":0.0017,"dx":0.0017,"nx":28,"ny":28,"refTime":"2024-05-07T09:00:00:Z","depth":0,"parameterNumber":2,"parameterNumberName":"U-component_of_WINDS"},"data":[0,0,0,0,0,0,0,0,0,0,0,0,0,0,0,0,0,0,0,0,0,0,0,0,0,0,0,0,0,0,0,0,0,0,0,0,0,0,0,0,0,0,0,0,0,0,0,0,0,0,0,0,0,0,0,0,0,0,-0.0481,-0.0481,0,-0.0501,-0.0501,-0.0501,-0.053,-0.053,-0.053,-0.0531,-0.0551,-0.0551,-0.0551,0,0,0,0,0,0,0,0,0,0,0,0,0,-0.0466,-0.0466,-0.0481,-0.0481,-0.0481,-0.0501,-0.0501,-0.0502,-0.0529,-0.053,-0.0531,-0.0531,-0.0551,-0.0551,-0.0551,0,0,0,0,0,0,0,0,0,0,0,0,0,-0.0478,-0.0466,-0.0481,-0.0497,-0.0499,-0.0501,-0.0501,-0.0502,-0.0529,-0.053,-0.0531,-0.0531,-0.0551,-0.0551,-0.0551,-0.0538,0,0,-0.0552,-0.0552,0,0,0,0,0,0,0,0,-0.0477,-0.0478,-0.0495,-0.0496,-0.0498,-0.0513,-0.0504,-0.0514,-0.0529,-0.0518,-0.0531,-0.0532,-0.0538,-0.0539,-0.0541,-0.0539,-0.054,-0.0552,-0.0552,-0.0552,-0.0552,0,0,0,0,0,0,0,-0.0476,-0.0478,-0.0489,-0.0495,-0.0497,-0.0504,-0.0507,-0.0506,-0.0524,-0.0519,-0.0521,-0.0523,-0.0539,-0.0541,-0.0542,-0.054,-0.0552,-0.0552,-0.0552,-0.0552,-0.0529,-0.0528,0,0,0,0,0,0,-0.0473,-0.0477,-0.0488,-0.0489,-0.0489,-0.0504,-0.0507,-0.0508,-0.0524,-0.0527,-0.0522,-0.0524,-0.0541,-0.0542,-0.0543,-0.0529,-0.0552,-0.0552,-0.0552,-0.0529,-0.0529,-0.0528,0,0,0,0,0,0,-0.0473,-0.0474,-0.0487,-0.0484,-0.0486,-0.0503,-0.0504,-0.0508,-0.051,-0.0526,-0.053,-0.0521,-0.0541,-0.0543,-0.0539,-0.053,-0.0552,-0.0552,-0.053,-0.0529,-0.0528,-0.0501,0,0,0,0,0,0,-0.0472,-0.0473,-0.0468,-0.0483,-0.0486,-0.0483,-0.0504,-0.0508,-0.051,-0.0513,-0.0526,-0.0529,-0.0542,-0.0539,-0.0539,-0.0531,-0.0552,-0.0531,-0.053,-0.0528,-0.0503,-0.0499,-0.0496,0,0,0,0,0,-0.0471,-0.0459,-0.0468,-0.0469,-0.048,-0.0482,-0.0484,-0.0499,-0.0509,-0.0505,-0.0515,-0.0529,-0.0531,-0.0538,-0.0539,-0.053,-0.0532,-0.053,-0.0529,-0.0504,-0.05,-0.0496,0,0,0,0,0,0,-0.0443,-0.0462,-0.0471,-0.0464,-0.0471,-0.0487,-0.0482,-0.0494,-0.0498,-0.05,-0.0519,-0.0522,-0.0516,-0.0523,-0.0531,-0.0519,-0.0533,-0.0532,-0.0515,-0.051,-0.0507,-0.0506,-0.0552,0,0,0,0,0,-0.0435,-0.0436,-0.0453,-0.0444,-0.0448,-0.0464,-0.0466,-0.0477,-0.0485,-0.0488,-0.0499,-0.0506,-0.0509,-0.051,-0.0513,-0.0504,-0.0507,-0.0498,-0.0495,-0.0492,-0.049,-0.0487,-0.0483,-0.0523,-0.0523,-0.0523,0,0,-0.0421,-0.0431,-0.043,-0.0439,-0.0446,-0.0446,-0.0466,-0.0465,-0.0466,-0.0488,-0.0486,-0.0494,-0.0503,-0.0497,-0.0495,-0.0502,-0.048,-0.049,-0.0487,-0.0488,-0.0485,-0.0481,-0.0478,-0.0521,-0.0522,-0.0522,0,0,-0.0394,-0.0402,-0.0396,-0.0403,-0.0414,-0.0425,-0.0423,-0.0438,-0.0444,-0.0442,-0.0459,-0.0459,-0.0463,-0.047,-0.0473,-0.045,-0.0463,-0.045,-0.0433,-0.0429,-0.0426,-0.0423,-0.0415,-0.0412,-0.0449,-0.0449,-0.0449,0,-0.0374,-0.0375,-0.0392,-0.039,-0.0394,-0.0414,-0.0409,-0.0415,-0.0426,-0.0428,-0.0437,-0.0442,-0.045,-0.0446,-0.0441,-0.0443,-0.0442,-0.0449,-0.0425,-0.0422,-0.042,-0.0413,-0.041,-0.0447,-0.0447,-0.0448,-0.0448,0,-0.035,-0.0351,-0.0345,-0.0356,-0.0359,-0.0355,-0.0372,-0.0373,-0.0384,-0.0394,-0.0392,-0.0402,-0.0408,-0.0408,-0.0418,-0.0406,-0.041,-0.0422,-0.0437,-0.0415,-0.0408,-0.0406,-0.0445,-0.0446,-0.0446,-0.0446,0,0,-0.0306,-0.0326,-0.0324,-0.033,-0.0343,-0.0344,-0.0342,-0.0348,-0.0349,-0.0356,-0.0355,-0.0358,-0.0369,-0.0373,-0.0384,-0.0381,-0.0363,-0.0393,-0.0393,-0.0387,-0.035,-0.0342,-0.0338,-0.0371,-0.0371,-0.037,-0.0349,0,-0.0282,-0.028,-0.0295,-0.0288,-0.0289,-0.0309,-0.0307,-0.0315,-0.0325,-0.0327,-0.0338,-0.034,-0.0354,-0.0357,-0.0354,-0.0365,-0.0355,-0.0367,-0.037,-0.037,-0.0368,-0.0335,-0.0326,-0.0305,-0.0347,-0.0346,-0.0346,0,-0.0254,-0.026,-0.0254,-0.0269,-0.027,-0.0268,-0.0275,-0.0277,-0.0287,-0.0294,-0.0299,-0.0313,-0.0312,-0.0326,-0.0325,-0.0333,-0.0335,-0.0341,-0.034,-0.0341,-0.0357,-0.0335,-0.0299,-0.0296,-0.0342,-0.0342,-0.0343,0,-0.0223,-0.023,-0.0227,-0.0231,-0.0248,-0.0246,-0.0253,-0.0264,-0.0267,-0.0273,-0.0276,-0.0281,-0.0285,-0.0289,-0.0304,-0.0313,-0.0302,-0.0317,-0.0308,-0.0308,-0.0305,-0.0305,-0.0269,-0.0306,-0.0306,-0.0306,-0.0306,0,-0.0195,-0.0191,-0.0213,-0.0212,-0.0207,-0.0225,-0.022,-0.0229,-0.0239,-0.0239,-0.0257,-0.0257,-0.0276,-0.0278,-0.029,-0.0288,-0.0289,-0.0295,-0.0298,-0.0294,-0.0293,-0.0296,-0.0298,-0.0305,-0.0305,-0.0305,-0.0305,0,-0.016,-0.0175,-0.0173,-0.019,-0.0194,-0.019,-0.0204,-0.0203,-0.0214,-0.0215,-0.0216,-0.0233,-0.0237,-0.0252,-0.0259,-0.0267,-0.0261,-0.0267,-0.0258,-0.026,-0.025,-0.0251,-0.0216,-0.0212,-0.025,-0.0249,-0.0249,0,-0.0142,-0.0139,-0.0155,-0.0157,-0.0163,-0.0166,-0.0169,-0.0186,-0.0189,-0.0201,-0.0199,-0.0204,-0.0209,-0.0214,-0.0227,-0.0233,-0.024,-0.0227,-0.0241,-0.0236,-0.024,-0.024,-0.024,-0.0224,-0.0223,-0.0223,-0.0222,0,-0.0108,-0.0115,-0.012,-0.0127,-0.013,-0.0137,-0.0144,-0.0144,-0.0164,-0.0166,-0.017,-0.0174,-0.0182,-0.0187,-0.0196,-0.0203,-0.0216,-0.0218,-0.0216,-0.0212,-0.0207,-0.021,-0.025,-0.0219,-0.0219,-0.0219,-0.022,-0.022,-0.0081,-0.0079,-0.0091,-0.0095,-0.0103,-0.0109,-0.011,-0.0121,-0.0125,-0.0133,-0.0143,-0.0146,-0.0156,-0.0169,-0.0175,-0.0178,-0.0185,-0.0182,-0.0182,-0.0181,-0.0179,-0.0206,-0.0179,-0.0179,-0.018,-0.018,-0.018,0,-0.0048,-0.0057,-0.0061,-0.0071,-0.0074,-0.0086,-0.0095,-0.0098,-0.01,-0.0109,-0.0114,-0.0119,-0.0124,-0.0138,-0.0145,-0.0144,-0.0151,-0.0145,-0.0146,-0.0148,-0.0172,-0.0173,-0.014,-0.014,-0.014,-0.014,-0.014,-0.014,-0.0032,-0.0031,-0.004,-0.0042,-0.0051,-0.0054,-0.0058,-0.0065,-0.0072,-0.0077,-0.0082,-0.0091,-0.0101,-0.0109,-0.0115,-0.0118,-0.012,-0.0113,-0.0119,-0.0142,-0.0146,-0.0149,-0.015,-0.0113,-0.0113,-0.0095,-0.0094,-0.0094]},{"header":{"parameterUnit":"m.s-1","parameterCategory":1,"la1":30.2991,"la2":30.254,"lo1":-89.0895,"lo2":-89.0444,"dy":0.0017,"dx":0.0017,"nx":28,"ny":28,"refTime":"2024-05-07T09:00:00:Z","depth":0,"parameterNumber":3,"parameterNumberName":"V-component_of_WINDS"},"data":[0,0,0,0,0,0,0,0,0,0,0,0,0,0,0,0,0,0,0,0,0,0,0,0,0,0,0,0,0,0,0,0,0,0,0,0,0,0,0,0,0,0,0,0,0,0,0,0,0,0,0,0,0,0,0,0,0,0,5.7291,5.7293,0,5.7413,5.7415,5.7416,5.7396,5.7394,5.7392,5.739,5.7509,5.7514,5.7519,0,0,0,0,0,0,0,0,0,0,0,0,0,5.7036,5.7041,5.7291,5.7293,5.7294,5.7413,5.7415,5.7417,5.7397,5.7394,5.7392,5.7389,5.7507,5.7513,5.7519,0,0,0,0,0,0,0,0,0,0,0,0,0,5.7151,5.7042,5.7291,5.7299,5.7301,5.7413,5.7415,5.7417,5.7397,5.7394,5.7391,5.7388,5.7505,5.7512,5.752,5.763,0,0,5.7543,5.7547,0,0,0,0,0,0,0,0,5.7145,5.716,5.7296,5.7299,5.7301,5.7387,5.7368,5.7488,5.7398,5.736,5.739,5.7386,5.747,5.7481,5.751,5.7636,5.7641,5.7544,5.7549,5.7552,5.7554,0,0,0,0,0,0,0,5.7137,5.7155,5.7339,5.7298,5.7301,5.7295,5.7308,5.7391,5.7431,5.7363,5.7362,5.7377,5.7471,5.7503,5.7513,5.7642,5.7544,5.7551,5.7555,5.7558,5.7865,5.7869,0,0,0,0,0,0,5.7127,5.7149,5.7336,5.7343,5.7214,5.7302,5.7316,5.7362,5.743,5.7438,5.738,5.7376,5.7491,5.7504,5.7517,5.7651,5.7552,5.7559,5.7564,5.7862,5.7866,5.787,0,0,0,0,0,0,5.7122,5.7144,5.7331,5.7246,5.7269,5.731,5.7361,5.7366,5.7398,5.7443,5.7449,5.7406,5.7489,5.7506,5.7603,5.7655,5.7563,5.757,5.7858,5.7863,5.7868,5.792,0,0,0,0,0,0,5.7115,5.7142,5.7186,5.7247,5.7274,5.7416,5.7364,5.7371,5.7412,5.7408,5.7469,5.7475,5.7488,5.7591,5.761,5.7664,5.7576,5.7853,5.786,5.7866,5.7914,5.7926,5.7937,0,0,0,0,0,5.7105,5.7193,5.7188,5.721,5.7329,5.7419,5.7434,5.7449,5.7416,5.746,5.7489,5.7474,5.7646,5.7602,5.7623,5.7679,5.785,5.7858,5.7866,5.7908,5.7924,5.7937,0,0,0,0,0,0,5.7134,5.7202,5.7196,5.7307,5.7358,5.7416,5.7471,5.7465,5.7524,5.7517,5.7531,5.7545,5.7643,5.7671,5.762,5.779,5.7743,5.7756,5.7768,5.7783,5.7795,5.7786,5.7582,0,0,0,0,0,5.7154,5.7224,5.7278,5.737,5.7397,5.743,5.7469,5.7477,5.7529,5.755,5.7585,5.7635,5.7701,5.7743,5.7806,5.7918,5.7931,5.7967,5.7979,5.7988,5.7999,5.8061,5.8078,5.7896,5.7896,5.7896,0,0,5.7195,5.724,5.7283,5.7378,5.7418,5.7489,5.7448,5.7523,5.7576,5.756,5.7655,5.7683,5.7739,5.7845,5.7892,5.787,5.8052,5.7998,5.8005,5.8011,5.8071,5.8088,5.8103,5.7902,5.7901,5.79,0,0,5.7305,5.7346,5.7429,5.7471,5.7534,5.7555,5.7575,5.7635,5.7654,5.7749,5.774,5.7801,5.7913,5.7955,5.799,5.8118,5.8107,5.8138,5.8199,5.826,5.8274,5.8287,5.8333,5.8349,5.8149,5.8149,5.8149,0,5.7347,5.7455,5.7471,5.755,5.7592,5.7584,5.7667,5.7706,5.7785,5.7813,5.7788,5.7931,5.7968,5.8083,5.8115,5.8143,5.8166,5.8131,5.8271,5.8284,5.8296,5.834,5.8357,5.8152,5.8152,5.8151,5.8151,0,5.7504,5.7579,5.7637,5.7717,5.7766,5.7845,5.7873,5.792,5.7923,5.7947,5.8044,5.8089,5.8162,5.819,5.8192,5.8306,5.829,5.8268,5.8221,5.8316,5.8358,5.8375,5.8157,5.8156,5.8155,5.8154,0,0,5.7635,5.7724,5.7746,5.7782,5.7852,5.7909,5.7989,5.8062,5.8102,5.8157,5.8224,5.832,5.8301,5.8341,5.8348,5.8401,5.8501,5.8373,5.8374,5.8395,5.863,5.8646,5.8666,5.8494,5.8497,5.85,5.8625,0,5.7752,5.7895,5.7913,5.804,5.8109,5.8104,5.8173,5.8222,5.8247,5.8308,5.8334,5.8403,5.8372,5.8397,5.8449,5.8478,5.8548,5.8469,5.8555,5.8558,5.8542,5.8687,5.8705,5.8821,5.8641,5.8644,5.8646,0,5.7908,5.7971,5.8105,5.8167,5.8196,5.8259,5.8328,5.8387,5.8443,5.8457,5.8504,5.8505,5.8586,5.8537,5.8648,5.8594,5.863,5.865,5.8655,5.8664,5.8608,5.87,5.8858,5.8876,5.8672,5.867,5.8668,0,5.7991,5.8108,5.8205,5.8236,5.831,5.8354,5.8386,5.8439,5.8483,5.8542,5.8571,5.8638,5.8675,5.8727,5.8746,5.8709,5.8858,5.881,5.8871,5.8871,5.8902,5.89,5.9069,5.8925,5.8925,5.8925,5.8924,0,5.812,5.8203,5.8243,5.8302,5.8394,5.8414,5.8504,5.8534,5.8581,5.8645,5.8643,5.8703,5.8725,5.8787,5.8803,5.8893,5.891,5.8923,5.8926,5.8923,5.8922,5.8947,5.894,5.8929,5.8928,5.8927,5.8927,0,5.8229,5.8259,5.8363,5.8426,5.8444,5.8509,5.8561,5.8618,5.8642,5.8723,5.8743,5.8781,5.8856,5.888,5.8969,5.8979,5.9085,5.9081,5.9067,5.9068,5.9128,5.9122,5.9319,5.9346,5.9185,5.9186,5.9187,0,5.8309,5.8373,5.8444,5.8488,5.8523,5.8593,5.8638,5.8659,5.8706,5.8776,5.8824,5.8898,5.8959,5.9077,5.9112,5.918,5.9177,5.9242,5.9187,5.9183,5.9179,5.9175,5.9182,5.9252,5.9253,5.9255,5.9256,0,5.845,5.8462,5.8529,5.8601,5.8656,5.8713,5.8769,5.8804,5.8833,5.8886,5.8963,5.901,5.9103,5.9176,5.9246,5.9278,5.9272,5.9273,5.9291,5.9289,5.9279,5.9286,5.9095,5.9268,5.9267,5.9266,5.9265,5.9265,5.8547,5.8604,5.8664,5.8738,5.8782,5.8835,5.8892,5.8925,5.899,5.9069,5.9077,5.916,5.9215,5.9309,5.9344,5.9408,5.939,5.9416,5.9422,5.9428,5.9434,5.9269,5.9421,5.9421,5.942,5.942,5.942,0,5.8688,5.8727,5.8795,5.8874,5.8933,5.8924,5.8985,5.9034,5.9109,5.9161,5.9222,5.9311,5.9383,5.9424,5.9496,5.9539,5.9539,5.9558,5.9555,5.9562,5.9446,5.9423,5.9557,5.9557,5.9557,5.9557,5.9557,5.9557,5.8769,5.8865,5.8885,5.9003,5.9041,5.9124,5.916,5.9208,5.9251,5.9351,5.9412,5.9439,5.9487,5.9563,5.9628,5.9638,5.9664,5.9686,5.9694,5.9584,5.957,5.9557,5.9536,5.9691,5.9691,5.9805,5.9806,5.9807]}]]